Home > Weather > Steinbach > Past weeks

Flag for Canada Past Weather in Steinbach, Manitoba, Canada — Yesterday and Last 2 Weeks

Now
60 °F

Cool.


Feels Like: 60 °F
Forecast: 54 / 77 °F
Wind: 1 mph from Southwest

Location: Winnipeg The Forks Man

Current Time: Jul 29, 2016 at 5:27:02 AM

Latest Report: Jul 29, 2016 at 5:00 AM


Visibility: N/A

Pressure: 30.08 "Hg

Humidity: 83%

Dew Point: 55 °F

Location of SteinbachLocation

Past Weather in Steinbach — Graph

°F

Steinbach Temperature Yesterday

Maximum temperature yesterday: 76 °F (at 5:00 PM)
Minimum temperature yesterday: 56 °F (at 5:00 AM)
Average temperature yesterday: 66 °F

High & Low Weather Summary for the Past Weeks

 TemperatureHumidityPressure
High89 °F (Jul 20, 6:00 PM)94% (Jul 17, 6:00 AM)30.17 "Hg (Jul 17, 6:00 AM)
Low53 °F (Jul 15, 5:00 AM)35% (Jul 15, 4:00 PM)29.62 "Hg (Jul 24, 12:00 AM)
Average70 °F65%29.94 "Hg
* Reported Jul 14 4:00 AM — Jul 29 4:00 AM, Steinbach, Weather by CustomWeather, © 2016

Note: Actual official high and low records may vary slightly from our data, if they occured in-between our weather recording intervals... More about our weather records

Advertising

Steinbach Weather History for the Previous 24 Hours

Scroll right to see more
 ConditionsComfort  
Time TempWeatherWind HumidityBarometerVisibility
4:00 AM
Fri, Jul 29
61 °FCool.1 mph79%30.08 "HgN/A
3:00 AM62 °FMild.1 mph74%30.09 "HgN/A
2:00 AM65 °FMild.2 mph69%30.09 "HgN/A
1:00 AM65 °FMild.2 mph68%30.09 "HgN/A
12:00 AM66 °FMild.1 mph67%30.09 "HgN/A
11:00 PM
Thu, Jul 28
67 °FMild.2 mph58%30.09 "HgN/A
10:00 PM66 °FMild.1 mph57%30.09 "HgN/A
9:00 PM71 °FMild.1 mph47%30.07 "HgN/A
8:00 PM74 °FMild.3 mph43%30.08 "HgN/A
7:00 PM75 °FMild.2 mph41%30.09 "HgN/A
6:00 PM75 °FMild.2 mph38%30.09 "HgN/A
5:00 PM76 °FMild.3 mph44%30.11 "HgN/A
4:00 PM74 °FMild.2 mph45%30.12 "HgN/A
3:00 PM73 °FMild.3 mph46%30.13 "HgN/A
2:00 PM72 °FMild.2 mph48%30.14 "HgN/A
1:00 PM71 °FMild.3 mph46%30.15 "HgN/A
12:00 PM70 °FMild.3 mph47%30.16 "HgN/A
11:00 AM68 °FMild.2 mph53%30.15 "HgN/A
10:00 AM66 °FMild.3 mph57%30.16 "HgN/A
9:00 AM65 °FMild.2 mph57%30.16 "HgN/A
8:00 AM62 °FCool.1 mph70%30.16 "HgN/A
7:00 AM57 °FCool.1 mph86%30.17 "HgN/A
6:00 AM56 °FCool.2 mph90%30.16 "HgN/A
5:00 AM56 °FCool.No wind84%30.15 "HgN/A
Weather by CustomWeather, © 2016

See weather overviewHow to use our weather pages